DW9920 Weather Reports


Display with metric or nautical units.
time (UTC)temp
F
wind
direction
speed
MPH
gust
MPH
rain 1hr
in
rain 24hr
in
rain mn
in
humidity
%
barometer
mb
20260906101543 66 160 0.0 1.0 0.00 0.49 0.01 1 1007.2
20260906100043 66 11 0.0 1.0 0.00 0.49 0.01 1 1007.0
20260906094559 66 125 0.0 0.0 0.00 0.49 0.01 1 1006.8
20260906093056 66 126 0.0 1.0 0.00 0.49 0.01 1 1006.7
20260906091535 66 126 0.0 0.0 0.00 0.49 0.01 1 1006.7
20260906090032 66 126 0.0 0.0 0.00 0.49 0.01 1 1006.7
20260906084524 66 126 0.0 1.0 0.00 0.49 0.01 1 1006.8
20260906083033 66 207 0.0 0.0 0.00 0.49 0.01 1 1006.8
20260906081516 66 214 0.0 0.0 0.00 0.49 0.01 1 1006.9
20260906080011 67 214 0.0 0.0 0.00 0.49 0.01 1 1006.7
20260906074506 67 214 0.0 0.0 0.01 0.49 0.01 1 1006.8
20260906073001 67 213 0.0 1.0 0.01 0.49 0.01 1 1007.0
20260906071557 67 118 0.0 0.0 0.01 0.49 0.01 1 1007.0
20260906070052 67 118 0.0 0.0 0.01 0.49 0.01 1 1006.8
20260906064548 67 121 0.0 1.0 0.00 0.48 0.00 1 1007.0
20260906063045 67 352 2.0 3.0 0.00 0.48 0.00 1 1007.1
20260906061540 67 136 0.0 1.0 0.00 0.48 0.00 1 1007.1
20260906060035 67 137 0.0 0.0 0.00 0.48 0.00 1 1007.3
20260906054533 67 136 0.0 2.0 0.00 0.48 0.00 1 1007.4
20260906053025 67 164 0.0 0.0 0.00 0.48 0.00 1 1007.6
20260906051523 67 163 0.0 0.0 0.00 0.48 0.00 1 1007.7
20260906050016 67 163 0.0 0.0 0.00 0.48 0.00 1 1007.6
20260906044512 67 163 0.0 0.0 0.00 0.48 0.00 1 1007.6
20260906043007 67 172 0.0 0.0 0.00 0.48 0.00 1 1007.5
20260906041503 67 172 0.0 0.0 0.00 0.48 0.00 1 1007.6
20260906040104 67 172 0.0 0.0 0.00 0.48 0.00 1 1007.7
20260906034603 67 172 0.0 0.0 0.00 0.48 0.48 1 1007.7
20260906033057 68 173 0.0 0.0 0.00 0.48 0.48 1 1007.6
20260906031555 68 173 0.0 1.0 0.00 0.48 0.48 1 1007.5
20260906030052 68 173 0.0 0.0 0.00 0.48 0.48 1 1007.6
20260906024557 69 173 0.0 0.0 0.00 0.48 0.48 1 1007.7
20260906023046 68 173 0.0 0.0 0.00 0.48 0.48 1 1007.9
20260906021543 68 173 0.0 0.0 0.00 0.48 0.48 1 1007.7
20260906020026 69 173 0.0 1.0 0.00 0.48 0.48 3 1007.6
20260905141545 74 311 0.0 2.0 0.00 0.19 0.01 1 1009.2
20260905140041 72 158 0.0 2.0 0.00 0.19 0.01 1 1008.4
20260905134539 72 143 0.0 0.0 0.00 0.19 0.01 1 1008.9
20260905133031 71 149 0.0 0.0 0.00 0.19 0.01 1 1009.3
20260905131527 70 208 0.0 0.0 0.00 0.19 0.01 1 1009.2
20260905130022 69 149 0.0 0.0 0.00 0.19 0.01 2 1009.3
20260905124522 67 132 0.0 0.0 0.00 0.19 0.01 3 1009.4
20260905123018 66 132 0.0 0.0 0.00 0.19 0.01 3 1009.3
20260905121508 66 132 0.0 0.0 0.01 0.19 0.01 4 1009.2
20260905120004 65 132 0.0 0.0 0.01 0.19 0.01 4 1009.1
20260905114600 65 132 0.0 0.0 0.01 0.20 0.01 4 1009.1
20260905113053 65 132 0.0 0.0 0.01 0.20 0.01 4 1008.9
20260905111602 65 133 0.0 0.0 0.00 0.19 0.00 4 1008.5
20260905110049 64 132 0.0 0.0 0.00 0.19 0.00 4 1008.4
20260905104547 65 132 0.0 0.0 0.00 0.19 0.00 4 1008.3
20260905103038 64 110 0.0 0.0 0.00 0.19 0.00 4 1008.5